This demonstration page uses our WeatherBlox Daily Observations layout. Learn more.

36.17497, -115.13722

Hourly Observations for August 21, 2018

Temp ( °F °C ) Dew Point ( °F °C ) Humidity (%) Winds ( mph kmh ) Pressure ( in mb ) Visibility ( mi km ) Precip ( " mm )
12:53 am 00:53 Clear 94 34.4 45 7.2 18 18 SW 14 22 29.77 1008 10 16.0934 0 0
1:53 am 01:53 Clear 92 33.3 46 7.8 21 21 SSW 15 24 29.78 1009 10 16.0934 0 0
2:53 am 02:53 Clear 90 32.2 46 7.8 22 22 SSE 7 11 29.8 1009 10 16.0934 0 0
3:53 am 03:53 Clear 90 32.2 46 7.8 22 22 SW 12 19 29.8 1009 10 16.0934 0 0
4:53 am 04:53 Clear 89 31.7 46 7.8 23 23 S 6 9 29.8 1009 10 16.0934 0 0
5:53 am 05:53 Clear 86 30 46 7.8 25 25 ESE 5 7 29.81 1010 10 16.0934 0 0
6:53 am 06:53 Sunny 88 31.1 45 7.2 22 22 SSW 13 20 29.82 1010 10 16.0934 0 0
7:53 am 07:53 Sunny 90 32.2 45 7.2 21 21 S 12 19 29.83 1010 10 16.0934 0 0
8:53 am 08:53 Sunny 93 33.9 44 6.7 18 18 SSE 16 26 29.84 1011 10 16.0934 0 0
9:53 am 09:53 Sunny 97 36.1 44 6.7 16 16 SSW 15 24 29.85 1011 10 16.0934 0 0
10:33 am 10:33 Sunny with Nearby Thunderstorms 98 36.7 44 6.7 16 16 SSW 16 26 29.71 1006 10 16.0934 0 0
10:53 am 10:53 Sunny 99 37.2 45 7.2 16 16 SW 17 28 29.85 1011 10 16.0934 0 0
11:53 am 11:53 Sunny 100 37.8 44 6.7 15 15 SSW 18 30 29.85 1011 10 16.0934 0 0
12:07 pm 12:07 Sunny with Thunderstorms 100 37.8 44 6.7 15 15 SSW 22 35 29.68 1005 10 16.0934 0 0
12:53 pm 12:53 Sunny with Nearby Thunderstorms 102 38.9 42 5.6 13 13 SW 18 30 29.83 1010 10 16.0934 0 0
1:07 pm 13:07 Sunny 102 38.9 43 6.1 13 13 SW 13 20 29.68 1005 10 16.0934 0 0
1:53 pm 13:53 Sunny 102 38.9 41 5 12 12 SW 18 30 29.81 1009 10 16.0934 0 0
2:53 pm 14:53 Sunny 104 40 42 5.6 12 12 SSW 18 30 29.79 1009 10 16.0934 0 0
3:53 pm 15:53 Sunny 103 39.4 42 5.6 12 12 SSW 15 24 29.76 1008 10 16.0934 0 0
4:53 pm 16:53 Sunny 103 39.4 43 6.1 13 13 W 16 26 29.76 1008 10 16.0934 0 0
5:31 pm 17:31 Sunny with Nearby Thunderstorms 103 39.4 44 6.7 13 13 WSW 14 22 29.56 1001 10 16.0934 0 0
5:53 pm 17:53 Sunny with Nearby Thunderstorms 102 38.9 43 6.1 13 13 WSW 20 31 29.76 1008 10 16.0934 0 0
6:20 pm 18:20 Sunny 101 38.3 44 6.7 14 14 WSW 15 24 29.59 1002 10 16.0934 0 0
6:53 pm 18:53 Sunny 100 37.8 44 6.7 15 15 W 13 20 29.76 1008 10 16.0934 0 0
7:53 pm 19:53 Clear 99 37.2 46 7.8 16 16 SW 8 13 29.78 1008 10 16.0934 0 0
8:00 pm 20:00 Clear with Nearby Thunderstorms 99 37.2 47 8.3 17 17 SW 13 20 29.62 1003 10 16.0934 0 0
8:50 pm 20:50 Clear with Thunderstorms 97 36 55 13 25 25 SSW 13 20 29.65 1004 10 16.0934 0 0
8:53 pm 20:53 Clear with Thunderstorms 97 36.1 56 13.3 25 25 SSW 9 15 29.8 1009 10 16.0934 0 0
9:12 pm 21:12 Clear with Nearby Thunderstorms 97 36.1 57 13.9 26 26 SSW 15 24 29.65 1004 10 16.0934 0 0
9:38 pm 21:38 Clear 96 35.6 59 15 29 29 SSW 16 26 29.65 1004 10 16.0934 0 0
9:53 pm 21:53 Clear 96 35.6 58 14.4 28 28 SSW 20 31 29.81 1010 10 16.0934 0 0
10:14 pm 22:14 Clear with Nearby Thunderstorms 95 35 58 14.4 29 29 S 15 24 29.71 1006 10 16.0934 0 0
10:34 pm 22:34 Clear 95 35 58 14.4 29 29 S 16 26 29.71 1006 10 16.0934 0 0
10:53 pm 22:53 Clear 95 35 58 14.4 29 29 S 17 28 29.82 1010 10 16.0934 0 0
11:53 pm 23:53 Clear 94 34.4 44 6.7 18 18 SW 16 26 29.83 1010 10 16.0934 0 0

Powered by AerisWeather